Retour au catalogue

STARLINK-37586

ActifCommunicationsVLEO
NORAD 69521·PAYLOAD·🇺🇸 United States

Lancé Jun 12, 2026 depuis Cape Canaveral Space Force Station

Loading…

Prochains Passages (prochaines 24 heures)

TLE

FraisSource: CelesTrak SupGP

Époque: Sep 14, 2026, 23:13 UTC

1 69521C 26133P   26257.96784722  .00035171  00000+0  10391-2 0  2574
2 69521  53.1563 255.4573 0001201  92.1300 359.4427 15.34374517    13

Suivez STARLINK-37586 en temps réel avec AllMySat

Download on the App Store